CDT,Max TemperatureF,Mean TemperatureF,Min TemperatureF,Max Dew PointF,MeanDew PointF,Min DewpointF,Max Humidity, Mean Humidity, Min Humidity, Max Sea Level PressureIn, Mean Sea Level PressureIn, Min Sea Level PressureIn, Max VisibilityMiles, Mean VisibilityMiles, Min VisibilityMiles, Max Wind SpeedMPH, Mean Wind SpeedMPH, Max Gust SpeedMPH,PrecipitationIn, CloudCover, Events, WindDirDegrees
2013-8-1,85,74,63,70,67,63,100,76,51,30.06,30.00,29.96,10,7,0,13,5,22,0.00,4,Fog,340
2013-8-2,85,72,59,68,62,59,100,72,44,30.04,30.01,29.98,10,6,0,7,2,10,0.00,0,Fog,179
2013-8-3,80,75,70,73,70,66,100,86,76,30.07,30.02,29.96,10,9,1,7,3,,0.08,4,Rain-Thunderstorm,218
2013-8-4,82,74,66,72,65,58,94,74,45,30.13,30.08,30.04,10,9,5,9,6,,0.00,1,,3
2013-8-5,81,72,63,67,63,59,93,78,49,30.09,30.03,29.94,10,10,6,10,3,14,0.07,5,Rain,145
2013-8-6,82,76,69,75,72,68,100,90,79,29.98,29.94,29.91,10,8,1,8,2,14,0.24,7,Rain-Thunderstorm,262
2013-8-7,84,79,73,76,73,71,94,84,74,29.99,29.93,29.89,10,9,3,12,3,31,0.04,4,Rain-Thunderstorm,179
2013-8-8,82,77,72,75,73,71,100,91,82,29.99,29.94,29.89,10,8,0,13,3,20,0.33,5,Fog-Rain-Thunderstorm,151
2013-8-9,89,81,72,76,73,71,93,78,63,30.05,29.98,29.93,10,10,8,14,4,17,T,3,Thunderstorm,255
2013-8-10,83,78,72,73,71,70,100,83,65,30.13,30.08,30.02,10,7,1,12,3,14,0.54,5,Rain-Thunderstorm,262
2013-8-11,87,80,73,76,73,72,94,82,70,30.14,30.10,30.04,10,8,0,14,2,20,0.03,6,Rain-Thunderstorm,250
2013-8-12,86,79,72,75,73,71,100,85,70,30.09,30.02,29.91,10,7,0,14,4,18,1.69,5,Fog-Rain-Thunderstorm,198
2013-8-13,83,75,66,72,69,62,100,78,55,30.02,29.96,29.92,10,10,7,14,7,17,0.00,4,,332
2013-8-14,76,67,57,61,55,52,93,68,43,30.12,30.08,30.03,10,10,10,15,7,20,0.00,0,,31
2013-8-15,80,67,54,59,56,52,93,71,48,30.11,30.07,30.02,10,10,10,9,4,15,0.00,0,,37
2013-8-16,78,71,64,67,63,58,90,76,62,30.09,30.06,30.03,10,10,10,9,2,13,0.00,7,,57
2013-8-17,78,72,65,70,67,64,93,81,69,30.15,30.09,30.05,10,9,5,7,2,9,0.10,6,Rain-Thunderstorm,94
2013-8-18,80,73,65,67,65,64,100,81,62,30.17,30.11,30.07,10,6,0,7,2,9,0.01,6,Fog,141
2013-8-19,85,74,62,70,66,62,100,79,58,30.14,30.10,30.04,10,6,0,9,1,12,0.00,3,Fog,89
2013-8-20,86,76,66,72,68,64,93,77,61,30.14,30.08,30.04,10,8,0,16,3,20,0.00,3,Fog-Thunderstorm,117
2013-8-21,89,79,69,73,70,66,97,74,50,30.15,30.10,30.06,10,8,2,9,3,13,0.00,0,,203
2013-8-22,90,79,68,73,69,66,100,74,47,30.15,30.10,30.02,10,7,0,12,2,15,0.00,2,Fog,322
2013-8-23,90,79,68,73,69,67,100,76,52,30.09,30.06,30.01,10,6,0,14,2,18,0.01,1,Fog-Rain-Thunderstorm,25
2013-8-24,90,77,64,70,66,64,100,75,50,30.19,30.14,30.08,10,6,0,12,4,17,0.00,0,Fog,69
2013-8-25,87,76,65,70,67,63,100,76,51,30.30,30.24,30.19,10,10,7,12,4,17,0.00,1,,145
2013-8-26,87,76,65,70,67,64,100,76,51,30.28,30.23,30.13,10,5,0,9,3,13,0.00,1,Fog,190
2013-8-27,87,78,68,72,69,65,93,79,59,30.16,30.10,30.04,10,8,0,12,4,15,0.00,0,Fog,240
2013-8-28,91,79,66,72,69,66,100,75,49,30.08,30.04,30.00,10,7,0,13,5,17,0.00,0,Fog,258
2013-8-29,94,83,72,75,71,69,94,70,46,30.03,29.99,29.95,10,10,8,14,5,17,0.00,1,,293
2013-8-30,94,84,73,74,72,70,94,73,46,29.99,29.93,29.89,10,9,4,13,5,16,0.00,0,,272
2013-8-31,94,84,73,74,72,70,93,71,49,29.92,29.86,29.80,10,10,5,12,4,16,0.00,1,,229